STARLINK-32310, 61662

Orbit data source: Space-Track

STARLINK-32310, 61662 is a payload satellite owned by SpaceX/Seattle (US) in LEO that was launched on Sat, 26 Oct 2024 UTC via an FALCON 9 launch vehicle from the Air Force Eastern Test Range (AFETR). Payload-class satellites include a variety of spacecraft equipped with specific instruments for various scientific and technological missions. These include communications satellites like Starlink; space stations such as the ISS; scientific satellites like the Hubble; Earth observation satellites from companies like Planet Labs, Umbra, and HawkEye 360; GPS; miniature CubeSats for education and research; and military/defense satellites.

Loading next visibility...
Identifier
61662, 2024-193B
Orbit
LEO
Country
Flag of USUS
Related business
Manufacturer
SpaceX/Seattle
Mission
Operational Commercial Communications
Bus & Motor
STARLINK V2M, Unknown motor
Mass
730 kg wet, ~700 kg dry
Launch date (UTC)
2024-10-26 (2 years ago)
Launch vehicle
FALCON 9
Launch site
Air Force Eastern Test Range (AFETR)
Object type
Payload
Rocket body
Debris
Shape & HBR
Box + 2 Pan, 17.7 m
Radar Cross Section
33.884 m², Large (>1 m²)

Expand to show TLE details & history
Last TLE update: 18 hours ago

TLE from 18 hours ago
0 STARLINK-32310
1 61662U 24193B   26171.17276887  .00000025  00000-0  12555-4 0  9992
2 61662  53.1600 334.5369 0001040  93.8565 266.2556 15.31696013 92224
Epoch: 2026-06-20T04:08Z
TLE epoch observation values (Epoch: 2026-06-20T04:08:47.230Z)
Latitude
0.00004°
Longitude
3.94894°
Altitude
471.699 km
Speed
7.631 km/s
True Right ascension
22h 18m 08s
True Declination
0° 00' 00"
Sunlit
Object was in full shadow at epoch
Visualization orbit readout
Latitude
Unknown
Longitude
Unknown
Altitude
Unknown
Speed
Unknown
Apparent Right ascension
Unknown
Apparent Declination
Unknown
Sunlit
N/A
Visualization observer readout
Local Sidereal Time
08:42:09
Azimuth
Unknown
Elevation
Unknown
Doppler factor
Unknown
Orbital elements
Apogee altitude
471.721 km
Perigee altitude
470.296 km
Semi-major axis
6,849.145 km
Eccentricity
0.0001
Inclination
53.16°
RAAN
334.5369°
Arg. of periapsis
93.8565°
True anomaly
266.24371°
Mean anomaly
266.2556°
Eccentric anomaly
266.24965°
Mean motion
3.82903 °/min
Orbital period
94.02 mins
BSTAR
0.000012555
Loading maneuver chart data...
Computing Atmospheric mass density...
Loading historical data...
Loading historical data...
Loading historical data...
Loading historical data...
Loading historical data...
Loading historical data...
Loading historical data...

Documentation

Showing up to 5 results
|